Sussex, NJ

8:14 PM EDT on June 26, 2017 (GMT -0400)
Sussex

Weather History for KFWN - May, 2014

Change the Weather History Date:

Friday, May 23, 2014

  Actual Average Record
Temperature  
Mean Temperature 64 °F -  
Max Temperature 72 °F 74 °F 89 °F (1959)
Min Temperature 57 °F 46 °F 32 °F (1971)
Growing Degree Days 14 (Base 50)    
Moisture  
Dew Point 54 °F    
Average Humidity 77    
Maximum Humidity 93    
Minimum Humidity 48    
Precipitation  
Precipitation 0.00 in - - ()
Sea Level Pressure  
Sea Level Pressure 29.88 in    
Wind  
Wind Speed 1 mph (NW)    
Max Wind Speed 13 mph    
Max Gust Speed 25 mph    
Visibility 6 miles    
Events Fog , Thunderstorm    
Averages and records for this station are not official NWS values.
T = Trace of Precipitation, MM = Missing Value Source: NWS Daily Summary

Daily Weather History Graph

Daily Weather History Graph

Search for Another Location

Airport or City:

Trip Planner

Search our weather history database for the weather conditions in past years. The results will help you decide how hot, cold, wet, or windy it might be!

Date:

Astronomy

May. 23, 2014 Rise Set
Actual Time 5:33 AM EDT 8:17 PM EDT
Civil Twilight 5:01 AM EDT 8:49 PM EDT
Nautical Twilight 4:20 AM EDT 9:30 PM EDT
Astronomical Twilight 3:34 AM EDT 10:16 PM EDT
Moon 2:29 AM EDT (5/23) 3:04 PM EDT (5/23)
Length of Visible Light 15h 48m
Length of Day
14h 44m
Waning Crescent, 27% of the Moon is Illuminated
May 23
Waning Crescent
May 28
New
Jun 5
First Quarter
Jun 13
Full
Jun 19
Last Quarter

Hourly Weather History & Observations

Time (EDT) Temp. Dew Point Humidity Pressure Visibility Wind Dir Wind Speed Gust Speed Precip Events Conditions
12:09 AM 60.1 °F 57.0 °F 90% 29.85 in 2.0 mi Calm Calm - N/A   Scattered Clouds
12:20 AM 61.0 °F 57.0 °F 87% 29.85 in 1.8 mi Calm Calm - N/A   Mostly Cloudy
12:33 AM 60.1 °F 57.0 °F 90% 29.85 in 2.0 mi Calm Calm - N/A   Overcast
12:42 AM 60.1 °F 57.0 °F 90% 29.85 in 2.5 mi Calm Calm - N/A   Overcast
12:48 AM 60.8 °F 57.2 °F 88% 29.85 in 1.2 mi Calm Calm - N/A   Mostly Cloudy
12:53 AM 60.1 °F 57.0 °F 90% 29.85 in 0.5 mi Calm Calm - N/A Fog Fog
1:11 AM 59.0 °F 55.9 °F 90% 29.84 in 0.2 mi Calm Calm - N/A Fog Fog
1:27 AM 59.0 °F 55.9 °F 90% 29.84 in 0.5 mi Calm Calm - N/A Fog Fog
1:53 AM 59.0 °F 57.0 °F 93% 29.84 in 0.5 mi Calm Calm - N/A Fog Fog
2:07 AM 59.0 °F 57.0 °F 93% 29.84 in 1.0 mi Calm Calm - N/A   Overcast
2:16 AM 59.0 °F 55.9 °F 90% 29.84 in 0.5 mi Calm Calm - N/A Fog Fog
2:53 AM 59.0 °F 57.0 °F 93% 29.85 in 0.2 mi Calm Calm - N/A Fog Fog
3:53 AM 59.0 °F 55.9 °F 90% 29.85 in 0.2 mi Calm Calm - N/A Fog Fog
4:53 AM 57.9 °F 55.9 °F 93% 29.85 in 0.2 mi Calm Calm - N/A Fog Fog
5:38 AM 57.9 °F 55.9 °F 93% 29.86 in 0.2 mi Calm Calm - N/A Fog Fog
6:05 AM 57.9 °F 55.0 °F 90% 29.86 in 1.5 mi Calm Calm - N/A   Overcast
6:37 AM 59.0 °F 55.9 °F 90% 29.88 in 2.5 mi Calm Calm - N/A   Overcast
6:45 AM 59.0 °F 55.9 °F 90% 29.88 in 3.0 mi Calm Calm - N/A   Overcast
6:53 AM 59.0 °F 57.0 °F 93% 29.87 in 4.0 mi Calm Calm - N/A   Overcast
7:53 AM 61.0 °F 54.0 °F 78% 29.88 in 10.0 mi Calm Calm - N/A   Overcast
8:05 AM 61.0 °F 53.1 °F 75% 29.89 in 10.0 mi Variable 3.5 mph - N/A   Overcast
8:23 AM 61.0 °F 53.1 °F 75% 29.90 in 10.0 mi NNW 4.6 mph - N/A   Overcast
8:53 AM 62.1 °F 53.1 °F 72% 29.90 in 10.0 mi Variable 4.6 mph - N/A   Overcast
9:13 AM 64.0 °F 54.0 °F 70% 29.90 in 10.0 mi Variable 3.5 mph - N/A   Overcast
9:53 AM 64.9 °F 53.1 °F 65% 29.90 in 10.0 mi Variable 4.6 mph - N/A   Overcast
10:34 AM 64.9 °F 53.1 °F 65% 29.91 in 10.0 mi Variable 3.5 mph - N/A   Overcast
11:53 AM 66.0 °F 53.1 °F 63% 29.90 in 10.0 mi West 4.6 mph - N/A   Overcast
12:01 PM 66.0 °F 53.1 °F 63% 29.90 in 10.0 mi Variable 4.6 mph - N/A   Overcast
12:53 PM 66.0 °F 52.0 °F 60% 29.90 in 10.0 mi NW 8.1 mph - N/A   Overcast
1:53 PM 66.9 °F 53.1 °F 61% 29.89 in 10.0 mi Variable 3.5 mph - N/A   Overcast
2:53 PM 69.1 °F 53.1 °F 57% 29.89 in 10.0 mi Variable 3.5 mph - N/A   Overcast
3:53 PM 70.0 °F 52.0 °F 53% 29.87 in 10.0 mi Variable 4.6 mph - N/A   Mostly Cloudy
4:53 PM 72.0 °F 53.1 °F 51% 29.85 in 10.0 mi NNE 6.9 mph - N/A   Scattered Clouds
5:53 PM 72.0 °F 51.1 °F 48% 29.85 in 10.0 mi Variable 4.6 mph - N/A   Mostly Cloudy
6:53 PM 69.1 °F 48.9 °F 49% 29.86 in 10.0 mi Calm Calm - N/A   Scattered Clouds
7:01 PM 68.0 °F 48.9 °F 50% 29.87 in 10.0 mi Calm Calm - N/A Thunderstorm Mostly Cloudy
7:25 PM 62.1 °F 52.0 °F 70% 29.90 in 1.8 mi North 9.2 mph 25.3 mph N/A Thunderstorm Haze
7:32 PM 61.0 °F 52.0 °F 72% 29.90 in 1.0 mi NW 12.7 mph 25.3 mph N/A   Haze
7:45 PM 60.1 °F 54.0 °F 80% 29.90 in 1.5 mi SSW 3.5 mph - N/A Thunderstorm Haze
7:48 PM 60.8 °F 53.6 °F 77% 29.90 in 2.0 mi Calm Calm - N/A Thunderstorm Unknown
7:53 PM 60.1 °F 55.0 °F 83% 29.91 in 4.0 mi Calm Calm - N/A Thunderstorm Unknown
8:09 PM 60.1 °F 55.9 °F 86% 29.91 in 10.0 mi SSW 3.5 mph - N/A Thunderstorm Overcast
8:40 PM 59.0 °F 55.0 °F 87% 29.92 in 10.0 mi Calm Calm - N/A   Mostly Cloudy
8:53 PM 60.1 °F 55.0 °F 83% 29.93 in 10.0 mi WNW 3.5 mph - N/A   Mostly Cloudy
9:53 PM 60.1 °F 52.0 °F 75% 29.96 in 10.0 mi Calm Calm - N/A   Overcast
10:53 PM 60.1 °F 50.0 °F 69% 29.96 in 10.0 mi Variable 4.6 mph - N/A   Mostly Cloudy
11:53 PM 59.0 °F 48.9 °F 69% 29.95 in 10.0 mi Variable 4.6 mph - N/A   Partly Cloudy